Probability
0 0 0 0 0 0 0 0 0 3 26 32 32 32 32 35 29 39 55 77 84 97 100 100 100 100 100 100 100 100 100 100 100 100 100 100 100 100 100 100 100 100 100 100 100 100 100 100 100
0 0 0 0 0 0 0 0 6 16 32 42 58 48 55 68 81 77 77 77 94 100 100 100 100 100 100 100 100 100 100 100 100 100 100 100 100 100 100 100 100 100 100 100 100 100 100 100 100
0 0 0 0 0 0 0 0 3 29 42 52 61 65 74 68 90 90 84 87 90 97 97 100 100 100 100 100 100 100 100 100 100 100 100 100 100 100 100 100 100 100 100 100 100 100 100 100 100
0 0 0 0 0 0 0 0 3 29 45 55 68 71 74 74 84 87 77 84 87 97 97 100 100 100 100 100 100 100 100 100 100 100 100 100 100 100 100 100 100 100 100 100 100 100 100 100 100
0 0 0 0 0 0 0 0 3 29 48 68 65 65 68 74 81 87 84 81 94 94 94 100 100 100 100 100 100 100 100 100 100 100 100 100 100 100 100 100 100 100 100 100 97 100 100 100 100
0 0 0 0 0 0 0 10 19 45 45 52 58 65 68 77 84 81 84 87 90 94 94 97 100 100 100 100 100 100 100 100 100 100 100 100 100 100 100 100 100 100 100 97 100 100 100 97 94
0 0 0 0 0 0 6 10 19 42 45 52 58 61 71 74 68 77 87 87 90 94 90 90 90 90 100 100 100 100 100 100 100 100 100 100 100 100 100 100 100 100 100 100 90 94 97 90 87
0 0 0 0 0 0 6 6 10 35 42 48 55 65 65 74 74 74 74 77 84 84 90 90 90 90 90 94 100 100 97 97 100 100 100 100 100 100 100 100 100 100 100 94 94 94 90 90 94
0 0 0 0 0 0 6 16 35 39 42 48 55 61 71 81 71 71 74 74 74 74 74 84 87 90 87 87 94 97 94 94 97 97 100 100 84 87 94 100 100 100 97 94 94 97 94 94 94
0 0 0 0 0 0 6 29 39 48 52 65 74 77 71 77 68 74 74 65 68 68 68 74 74 77 84 87 81 81 87 81 77 74 74 74 68 68 81 94 100 100 97 94 94 90 87 87 65
0 0 0 0 3 3 16 26 42 45 55 71 74 71 74 71 65 65 61 55 55 58 58 58 68 65 61 65 65 61 68 68 68 68 68 65 58 58 65 71 81 84 90 77 84 81 81 68 52
0 0 0 0 13 10 19 35 48 65 55 61 77 74 68 65 65 61 58 45 48 48 45 45 42 55 48 48 48 42 48 55 45 48 45 42 42 39 52 58 61 65 58 58 61 55 52 42 32
0 0 3 3 16 16 19 52 52 65 55 65 65 68 68 61 52 52 52 42 45 45 48 35 35 35 29 32 35 42 42 42 42 42 42 39 35 32 32 35 35 42 39 39 42 35 39 32 32
0 0 0 3 16 19 26 29 42 52 52 55 65 61 58 48 45 39 39 42 39 32 29 26 29 26 26 26 23 26 26 35 32 26 32 32 26 26 29 29 26 26 32 32 35 35 35 26 32
0 0 0 0 6 16 16 19 35 42 45 58 58 55 42 45 35 35 32 29 29 29 29 26 26 26 26 23 23 23 26 26 26 23 19 23 19 23 19 19 13 16 23 23 23 16 13 13 16
0 0 0 0 3 3 3 16 23 39 39 45 55 45 39 32 35 39 29 29 23 16 19 23 26 23 19 23 23 23 23 23 19 16 16 23 19 19 10 16 16 13 10 10 6 10 3 3 3
0 0 0 0 0 3 0 10 16 23 32 42 48 42 32 39 32 32 32 23 19 23 16 16 16 16 13 19 19 23 23 23 23 19 19 16 19 10 13 13 10 6 6 3 6 0 0 0 0
0 0 0 0 0 3 3 6 16 19 23 29 32 35 39 39 23 26 32 26 19 19 19 19 13 19 16 16 19 23 23 23 19 10 13 13 10 10 13 6 6 3 3 3 3 3 0 0 0
0 0 0 0 0 0 0 6 13 13 19 19 29 39 32 32 29 23 19 23 19 19 16 16 13 13 13 13 16 13 13 6 0 6 13 6 13 10 10 6 6 3 3 3 3 3 0 0 0
0 0 0 0 0 0 0 3 6 10 19 19 23 32 29 23 13 16 6 13 16 16 13 13 10 10 6 13 16 10 3 0 0 0 0 0 3 6 10 3 3 3 3 3 3 0 0 0 0
0 0 0 0 0 0 0 0 0 3 6 13 16 19 19 23 13 6 10 13 13 16 13 13 10 10 10 6 16 10 0 0 0 0 0 0 0 0 0 3 3 0 3 0 0 0 0 0 0
0 0 0 0 0 0 0 0 0 0 3 6 3 13 13 13 13 6 10 10 16 16 16 13 10 10 10 6 3 6 0 0 0 0 0 0 0 0 0 0 0 0 0 0 0 0 0 0 0
0 0 0 0 0 0 0 0 0 0 0 0 10 6 13 10 10 10 10 16 16 13 10 10 10 3 3 0 0 0 0 0 0 0 0 0 0 0 0 0 0 0 3 0 0 0 0 0 0
0 0 0 0 0 0 0 0 0 0 0 0 3 6 6 6 16 13 10 16 10 10 6 6 6 3 0 0 0 0 0 0 0 0 0 0 0 0 0 0 0 0 0 0 0 0 0 0 0
0 0 0 0 0 0 0 0 0 0 0 3 0 6 3 3 13 16 10 10 10 6 6 6 3 0 0 0 0 0 0 0 0 0 0 0 0 0 0 0 0 0 0 0 0 0 0 0 0
0 0 0 0 0 0 0 0 0 0 0 0 3 3 3 3 10 6 3 0 0 3 6 3 0 0 0 0 0 0 0 0 0 0 0 0 0 0 0 0 0 0 0 0 0 0 0 0 0
0 0 0 0 0 0 0 0 0 3 3 3 3 3 6 6 0 6 3 3 0 0 0 0 0 0 0 0 0 0 0 0 0 0 0 0 0 0 0 0 0 0 0 0 0 0 0 0 0
0 0 0 0 0 0 0 0 0 0 0 3 3 3 0 0 0 3 3 3 0 0 0 0 0 0 0 0 0 0 0 0 0 0 0 0 0 0 0 0 0 0 0 0 0 0 0 0 0
0 0 0 0 0 0 0 0 0 0 0 0 0 0 0 0 3 3 3 3 3 0 0 0 0 0 0 0 0 0 0 0 0 0 0 0 0 0 0 0 0 0 0 0 0 0 0 0 0
0 0 0 0 0 0 0 0 0 0 0 0 3 0 3 3 3 3 3 0 0 0 0 0 0 0 0 0 0 0 0 0 0 0 0 0 0 0 0 0 0 0 0 0 0 0 0 0 0
Height
5905 5906 5908 5910 5911 5911 5910 5910 5910 5910 5911 5912 5912 5913 5914 5916 5917 5918 5916 5915 5915 5914 5915 5915 5915 5915 5915 5915 5915 5915 5915 5915 5915 5915 5915 5914 5914 5914 5914 5913 5913 5912 5912 5911 5910 5910 5909 5908 5907
5903 5904 5906 5908 5909 5908 5908 5907 5908 5909 5910 5911 5912 5912 5913 5914 5914 5914 5914 5913 5913 5913 5913 5914 5914 5914 5914 5914 5914 5914 5914 5914 5914 5914 5913 5913 5913 5913 5913 5912 5912 5911 5911 5910 5910 5909 5908 5907 5907
5901 5902 5905 5905 5906 5906 5905 5905 5906 5906 5908 5910 5911 5911 5912 5912 5912 5912 5912 5912 5912 5912 5912 5912 5912 5912 5912 5913 5913 5912 5912 5912 5912 5912 5912 5912 5912 5912 5911 5911 5911 5910 5910 5909 5909 5908 5907 5907 5906
5898 5900 5902 5903 5903 5903 5903 5903 5903 5904 5905 5908 5909 5910 5910 5910 5910 5910 5910 5910 5910 5910 5910 5910 5910 5910 5911 5911 5911 5910 5910 5910 5910 5910 5910 5910 5910 5910 5910 5910 5910 5909 5909 5908 5907 5907 5906 5906 5905
5896 5898 5899 5900 5900 5900 5900 5900 5900 5901 5903 5905 5906 5907 5907 5907 5907 5908 5908 5908 5908 5908 5908 5908 5908 5908 5908 5908 5908 5908 5908 5908 5908 5908 5908 5908 5908 5908 5908 5908 5908 5907 5907 5906 5906 5905 5905 5904 5904
5893 5895 5897 5897 5897 5897 5897 5897 5898 5899 5900 5902 5904 5905 5903 5903 5904 5905 5905 5905 5906 5906 5906 5906 5906 5906 5906 5905 5905 5905 5905 5905 5905 5905 5905 5905 5905 5905 5905 5905 5905 5905 5905 5905 5904 5903 5903 5903 5902
5890 5892 5893 5894 5894 5894 5894 5895 5896 5897 5898 5900 5901 5902 5901 5902 5903 5902 5902 5902 5903 5903 5904 5904 5903 5903 5903 5902 5902 5902 5902 5901 5901 5902 5902 5902 5902 5902 5902 5902 5902 5903 5903 5902 5901 5901 5901 5900 5900
5887 5890 5891 5891 5891 5891 5891 5893 5893 5894 5896 5897 5898 5898 5898 5899 5901 5901 5900 5900 5900 5901 5901 5901 5900 5900 5900 5900 5899 5899 5898 5898 5898 5898 5898 5898 5898 5898 5898 5898 5899 5899 5899 5899 5899 5899 5898 5898 5898
5884 5887 5887 5887 5887 5887 5889 5890 5891 5891 5893 5894 5894 5896 5896 5896 5897 5898 5898 5898 5898 5898 5898 5898 5897 5897 5897 5896 5895 5895 5894 5894 5894 5894 5894 5894 5894 5894 5894 5894 5895 5895 5895 5895 5896 5895 5895 5895 5895
5881 5883 5884 5884 5884 5884 5886 5887 5888 5889 5890 5891 5892 5892 5892 5893 5894 5894 5894 5895 5895 5895 5895 5895 5894 5893 5893 5892 5891 5890 5890 5890 5890 5890 5890 5890 5890 5890 5890 5890 5890 5890 5891 5891 5891 5891 5891 5891 5891
5877 5879 5879 5880 5880 5881 5882 5884 5885 5886 5888 5889 5888 5888 5888 5889 5890 5890 5891 5892 5892 5892 5891 5891 5891 5890 5889 5888 5887 5886 5886 5885 5885 5885 5884 5885 5885 5884 5885 5885 5885 5885 5886 5886 5887 5887 5887 5887 5887
5874 5875 5875 5876 5877 5879 5879 5881 5882 5883 5884 5885 5884 5884 5884 5885 5886 5887 5887 5888 5888 5888 5888 5887 5887 5886 5885 5884 5882 5882 5881 5881 5880 5880 5879 5879 5879 5879 5879 5879 5879 5879 5880 5881 5881 5882 5882 5882 5883
5870 5871 5872 5873 5874 5874 5876 5877 5878 5879 5880 5881 5881 5881 5881 5881 5882 5883 5883 5884 5884 5884 5884 5883 5883 5882 5881 5880 5878 5877 5876 5876 5875 5875 5874 5874 5874 5874 5874 5874 5874 5874 5875 5875 5876 5877 5877 5877 5878
5866 5867 5868 5870 5871 5871 5872 5874 5875 5875 5876 5877 5877 5878 5878 5878 5878 5879 5879 5880 5880 5879 5879 5879 5878 5877 5876 5875 5874 5872 5871 5871 5870 5869 5868 5868 5868 5868 5868 5869 5868 5868 5869 5870 5870 5871 5871 5872 5873
5862 5864 5865 5867 5868 5869 5870 5871 5871 5872 5873 5874 5874 5875 5875 5875 5875 5875 5875 5875 5875 5875 5875 5874 5873 5872 5872 5870 5869 5867 5866 5865 5865 5864 5863 5863 5863 5863 5863 5863 5862 5862 5863 5864 5864 5865 5866 5867 5867
5859 5861 5862 5864 5865 5866 5868 5867 5868 5869 5869 5870 5870 5871 5872 5872 5872 5872 5872 5872 5872 5871 5870 5870 5869 5868 5867 5866 5864 5863 5861 5860 5859 5859 5858 5858 5857 5857 5857 5857 5857 5856 5857 5857 5858 5859 5860 5861 5862
5857 5858 5860 5861 5861 5862 5864 5863 5864 5865 5866 5866 5867 5868 5868 5868 5867 5868 5868 5868 5868 5867 5866 5865 5864 5863 5862 5860 5859 5858 5856 5855 5854 5854 5853 5852 5852 5852 5851 5851 5851 5851 5851 5851 5852 5853 5854 5855 5857
5855 5856 5857 5857 5858 5859 5859 5860 5861 5862 5861 5861 5862 5864 5864 5864 5864 5863 5863 5864 5864 5863 5861 5860 5859 5858 5857 5856 5855 5853 5852 5850 5849 5848 5848 5847 5846 5846 5845 5845 5845 5845 5846 5846 5847 5848 5849 5850 5851
5851 5852 5853 5854 5855 5856 5856 5857 5857 5857 5857 5857 5858 5859 5859 5860 5859 5860 5860 5860 5859 5858 5857 5856 5855 5854 5853 5852 5850 5849 5847 5846 5844 5843 5842 5841 5840 5840 5839 5839 5839 5839 5840 5840 5841 5842 5843 5844 5845
5847 5848 5849 5851 5852 5852 5853 5853 5853 5853 5853 5853 5854 5854 5855 5856 5856 5856 5856 5856 5855 5854 5853 5852 5851 5850 5849 5847 5845 5844 5842 5840 5839 5838 5837 5836 5835 5834 5833 5833 5833 5833 5833 5835 5835 5836 5837 5838 5839
5844 5846 5847 5848 5848 5848 5849 5849 5849 5849 5849 5849 5849 5850 5850 5851 5852 5852 5852 5851 5850 5850 5849 5847 5846 5845 5843 5842 5840 5839 5837 5835 5834 5832 5831 5830 5829 5829 5827 5827 5827 5827 5827 5828 5829 5830 5831 5833 5834
5842 5843 5844 5845 5845 5845 5846 5846 5846 5845 5844 5844 5844 5844 5845 5845 5847 5848 5847 5846 5846 5845 5843 5842 5840 5839 5838 5837 5835 5833 5832 5830 5828 5827 5825 5824 5823 5822 5822 5821 5821 5821 5822 5822 5823 5825 5826 5827 5828
5840 5840 5841 5841 5842 5842 5842 5843 5843 5842 5840 5840 5840 5839 5839 5840 5841 5841 5841 5841 5841 5839 5838 5836 5835 5833 5832 5831 5830 5828 5826 5824 5822 5821 5819 5818 5817 5817 5816 5816 5816 5816 5817 5817 5818 5819 5820 5821 5822
5837 5838 5838 5838 5839 5839 5839 5840 5840 5839 5838 5838 5836 5835 5835 5836 5835 5836 5836 5835 5835 5834 5832 5830 5829 5828 5826 5825 5823 5822 5820 5818 5816 5815 5814 5813 5812 5811 5810 5810 5810 5810 5811 5811 5812 5812 5813 5814 5815
5835 5836 5836 5836 5836 5836 5837 5836 5836 5835 5835 5834 5833 5831 5830 5831 5831 5830 5830 5830 5829 5828 5826 5825 5823 5821 5820 5818 5817 5815 5814 5812 5810 5809 5808 5807 5806 5805 5805 5804 5804 5804 5804 5805 5805 5806 5807 5807 5808
5831 5832 5833 5833 5833 5833 5833 5832 5833 5831 5831 5830 5829 5827 5826 5826 5825 5825 5824 5824 5824 5822 5820 5818 5817 5815 5813 5811 5810 5808 5807 5805 5804 5802 5801 5801 5799 5799 5798 5798 5798 5798 5798 5798 5798 5799 5800 5800 5801
5828 5828 5829 5830 5830 5830 5830 5829 5828 5827 5827 5825 5824 5822 5821 5821 5820 5819 5817 5818 5817 5815 5813 5812 5810 5808 5806 5804 5802 5801 5800 5798 5797 5796 5795 5794 5793 5792 5792 5791 5791 5791 5791 5791 5792 5792 5792 5793 5794
5826 5826 5826 5826 5826 5826 5826 5825 5825 5823 5822 5820 5819 5817 5816 5816 5815 5814 5812 5812 5810 5809 5807 5805 5803 5801 5799 5797 5795 5794 5792 5791 5790 5789 5788 5787 5786 5786 5785 5785 5784 5784 5784 5784 5784 5785 5785 5786 5786
5822 5823 5823 5823 5823 5823 5822 5824 5820 5819 5817 5815 5814 5812 5811 5811 5810 5808 5807 5805 5803 5802 5800 5798 5796 5794 5792 5790 5788 5787 5785 5784 5783 5782 5781 5780 5779 5778 5778 5777 5777 5776 5776 5776 5776 5776 5777 5777 5777
5818 5819 5819 5820 5820 5819 5819 5821 5816 5814 5811 5809 5808 5807 5806 5805 5804 5802 5801 5799 5797 5795 5793 5791 5789 5787 5784 5782 5781 5779 5778 5776 5775 5774 5773 5772 5772 5771 5770 5770 5769 5768 5768 5768 5767 5767 5768 5768 5768
Wind_Speed
10 9 8 9 9 11 12 12 12 12 10 10 11 13 13 12 9 8 8 8 8 7 6 6 7 7 7 7 8 8 8 9 10 10 10 11 11 11 10 10 9 9 8 7 7 6 6 5 4
11 10 10 10 11 13 14 15 14 13 11 11 13 15 15 14 12 10 9 8 9 9 8 8 8 8 9 9 10 10 10 10 11 12 12 12 12 12 12 12 11 11 10 9 9 8 7 7 6
12 11 11 12 14 16 17 16 16 15 13 12 15 17 17 16 14 12 10 10 10 10 9 9 9 9 10 11 11 12 12 12 13 13 13 14 14 14 14 13 13 12 12 11 11 10 9 8 7
13 13 13 15 17 18 19 18 17 16 16 15 16 17 18 17 16 13 11 11 11 10 9 9 10 10 11 12 12 13 13 14 14 15 15 15 15 15 15 15 15 14 14 13 12 11 10 9 8
14 15 15 17 19 19 19 18 17 18 18 18 18 17 18 18 15 12 13 12 11 11 10 10 11 11 12 13 13 14 15 16 16 16 16 16 16 17 17 17 17 16 15 15 14 13 12 11 10
15 15 17 19 21 21 20 18 19 20 20 20 20 19 18 16 13 12 12 12 12 11 11 11 12 13 14 15 15 16 16 17 17 18 18 17 17 18 18 18 19 18 17 16 16 15 14 13 12
16 16 18 20 22 22 21 20 20 21 22 22 20 19 17 15 13 13 12 11 12 12 12 13 13 14 15 15 16 17 18 18 19 19 19 19 19 19 19 20 20 20 19 18 17 16 15 15 14
16 17 20 21 23 24 23 21 22 22 23 22 21 20 18 15 13 13 13 12 13 13 13 14 14 15 16 17 17 18 19 19 20 20 20 20 20 20 20 21 21 21 21 20 19 19 17 17 16
16 18 22 24 25 25 23 22 22 23 23 21 20 18 18 16 14 13 13 13 13 14 14 15 15 16 17 18 19 20 20 21 21 21 22 22 22 22 22 22 22 22 22 22 21 20 19 18 17
18 21 24 26 26 25 22 21 22 24 23 21 19 18 18 16 14 13 13 12 13 14 15 15 16 17 18 19 20 20 20 21 22 23 23 23 23 24 24 24 23 24 24 24 23 22 22 20 19
20 23 25 26 25 23 22 21 22 23 22 20 19 19 18 16 14 14 13 13 13 14 15 16 17 18 18 20 21 21 20 21 22 23 24 25 25 25 25 25 24 24 25 25 24 24 23 22 20
22 25 26 25 23 22 21 21 22 22 22 19 18 17 15 14 13 13 13 13 14 15 16 17 17 18 19 20 20 20 21 21 22 23 24 24 25 26 26 26 26 26 25 25 25 25 24 23 22
25 25 25 25 23 23 21 21 21 22 20 20 18 17 16 17 14 14 14 15 15 16 17 18 19 19 20 21 22 21 22 22 23 24 25 26 25 25 26 26 27 26 26 26 25 25 25 24 24
25 26 26 25 24 23 22 22 22 21 20 20 19 17 17 17 16 16 15 15 15 16 17 18 19 20 21 21 22 22 23 23 23 23 24 26 25 25 26 26 26 27 26 26 26 26 25 24 24
25 26 26 24 23 24 23 23 23 22 20 19 18 17 17 16 15 15 15 15 16 16 17 18 19 21 21 21 22 22 23 22 22 23 23 23 24 25 26 27 27 27 26 25 26 26 27 26 25
23 24 23 22 23 23 23 23 22 21 19 18 17 17 17 16 15 14 15 16 16 17 18 20 20 21 22 23 23 23 23 22 22 23 23 22 22 23 23 24 25 25 25 25 25 25 25 25 24
19 20 19 20 21 22 22 21 21 20 19 18 18 18 17 16 16 15 16 17 18 18 19 20 20 21 22 23 23 24 23 23 23 23 22 22 23 23 24 25 24 24 23 23 23 23 23 24 23
15 16 17 18 18 20 20 20 20 19 18 17 16 16 17 17 16 16 16 17 18 18 19 19 20 20 21 22 23 23 23 23 22 22 22 23 23 24 25 24 24 24 23 23 23 23 23 23 22
13 14 14 15 17 17 18 18 19 18 19 17 16 16 16 18 18 16 16 17 18 18 18 18 19 19 20 21 22 22 22 22 22 22 22 22 23 23 23 24 24 23 24 23 23 22 22 22 21
13 14 13 13 14 16 15 16 17 17 18 19 19 17 16 15 16 17 17 17 18 19 19 19 19 20 21 21 22 23 24 24 24 23 23 23 22 22 23 23 23 23 23 22 22 21 20 20 20
12 14 13 13 14 16 15 15 17 18 18 19 18 17 16 15 14 15 16 17 18 19 19 20 21 21 21 22 22 23 24 24 24 24 24 24 23 22 22 21 21 21 21 21 21 20 20 20 20
12 13 13 13 14 15 15 16 17 20 21 21 20 18 17 16 14 15 16 16 18 19 20 20 21 21 21 21 22 22 23 23 23 23 23 21 21 21 21 21 21 21 20 20 20 20 21 21 21
13 12 13 14 14 16 16 17 17 19 20 20 20 18 17 16 15 16 16 17 18 19 20 21 21 22 22 22 23 23 22 23 23 22 21 21 21 20 20 21 20 20 21 20 20 20 21 21 21
12 12 14 15 15 17 17 19 19 20 19 21 21 19 18 18 17 17 18 19 19 20 20 21 22 23 23 23 23 23 23 23 22 21 21 21 21 21 20 20 20 20 21 21 21 22 22 22 22
14 14 14 14 15 17 17 20 20 19 19 19 20 20 20 18 17 17 17 19 20 21 22 23 23 24 24 24 24 24 24 23 22 21 20 21 22 22 21 20 19 19 20 20 21 21 21 22 22
14 15 16 16 17 17 18 20 20 19 20 21 20 20 21 20 19 19 19 20 21 22 23 23 23 24 25 25 25 25 25 24 23 22 22 22 22 21 21 20 20 20 21 21 21 22 22 22 23
13 15 17 18 18 18 18 19 20 20 20 20 21 21 21 22 22 21 20 20 22 22 23 23 23 24 24 26 26 26 26 25 24 23 23 22 22 22 22 22 22 22 22 23 23 24 24 24 24
15 16 17 18 19 19 19 19 19 19 19 20 20 19 18 19 20 20 21 21 22 22 23 23 23 24 24 25 26 26 26 26 25 25 24 23 23 23 23 24 24 24 24 25 24 25 25 26 27
14 15 16 16 16 16 17 17 18 18 18 19 19 19 19 19 19 19 20 22 23 23 23 23 23 24 25 25 26 26 26 26 25 25 25 24 24 23 23 23 24 25 26 26 26 27 27 27 28
14 14 14 15 16 16 17 17 17 17 17 17 16 17 18 19 20 21 21 21 22 22 23 23 24 24 24 24 24 26 26 25 25 25 24 24 24 24 24 24 24 24 25 25 26 27 28 28 28
Wind_Direction
238 229 217 211 204 206 212 225 233 240 250 267 278 284 286 289 288 281 281 270 271 279 281 281 279 274 271 271 269 269 270 274 274 274 276 277 277 278 279 280 282 285 288 287 286 287 290 294 298
238 228 215 203 196 198 212 225 232 241 247 263 275 282 285 285 281 276 272 264 269 276 278 277 277 275 272 270 269 267 267 269 270 271 273 274 274 275 275 276 279 282 284 284 284 284 286 288 291
237 225 209 195 193 203 214 225 234 238 240 253 268 275 280 279 273 272 266 264 267 270 274 273 274 276 274 270 269 266 264 266 268 268 268 270 271 272 273 274 277 278 280 281 282 282 284 287 290
231 218 205 194 197 209 219 225 233 243 247 259 267 271 275 274 269 265 261 263 265 267 272 272 273 275 274 270 268 266 263 265 266 265 266 268 268 268 270 272 274 275 276 278 279 279 280 283 286
225 216 202 195 202 211 221 231 236 245 254 268 272 273 277 272 266 257 255 257 261 266 269 270 271 273 274 272 269 267 264 264 264 263 264 265 266 266 266 268 271 272 273 275 276 276 277 279 280
221 213 204 200 207 216 226 235 240 249 260 267 272 277 278 267 257 251 251 254 260 266 269 269 272 274 273 272 272 269 267 265 263 261 262 263 265 265 264 266 268 269 271 272 273 273 275 276 276
215 206 203 206 214 221 227 235 243 251 261 269 272 274 271 268 263 254 252 257 262 266 268 270 274 275 275 276 274 272 269 266 264 263 263 263 264 265 265 264 266 268 269 269 269 270 272 274 275
207 202 202 206 215 223 231 237 247 255 263 269 272 270 270 270 260 255 255 259 265 268 269 272 274 274 276 277 277 275 271 267 266 266 265 264 265 264 265 264 264 265 266 267 268 268 270 271 273
201 199 202 209 218 227 235 241 250 260 268 271 272 268 266 263 261 256 254 258 263 268 270 273 273 274 276 277 276 274 271 269 269 269 267 266 266 265 265 264 263 263 264 265 266 267 267 268 270
197 196 204 214 222 229 235 245 254 263 267 271 268 269 265 263 263 258 257 261 263 268 271 272 276 277 277 278 277 273 272 269 268 269 270 268 265 265 265 265 263 261 262 263 263 263 264 266 267
197 199 208 216 222 228 236 245 253 260 265 266 265 266 263 258 260 257 262 264 265 267 269 271 276 278 278 278 278 273 271 271 271 271 270 267 266 264 263 264 263 262 264 264 261 261 261 263 265
199 204 211 218 225 231 239 247 253 258 262 261 262 265 257 254 254 259 262 264 266 267 271 273 275 278 279 280 279 273 274 277 276 274 272 268 267 265 264 263 261 262 264 265 263 261 261 263 264
203 208 214 219 227 235 241 248 254 258 258 258 262 265 263 263 261 263 262 263 267 269 272 274 276 278 280 280 279 276 279 279 277 275 272 269 269 268 265 265 263 263 264 265 264 262 259 259 261
207 212 216 221 228 237 240 246 251 256 259 258 258 257 258 264 268 266 261 262 268 271 272 274 276 278 280 282 282 279 278 278 278 276 276 271 267 265 266 265 265 263 264 263 260 259 258 258 259
214 217 220 224 232 239 243 247 249 255 258 257 256 257 259 261 264 261 257 264 269 273 275 278 279 280 281 282 279 279 277 277 279 279 277 273 271 266 266 268 265 265 266 263 260 259 258 257 257
217 222 226 230 234 239 244 249 252 252 257 257 257 258 257 261 260 259 262 269 274 278 279 280 280 281 282 284 282 282 281 278 280 281 279 277 273 268 267 269 269 267 267 265 261 260 259 256 255
219 224 228 232 236 241 245 252 256 257 253 255 256 257 257 258 258 263 264 270 276 279 280 281 283 283 283 285 285 285 284 282 284 283 280 278 276 272 271 271 269 265 265 264 261 256 257 253 253
224 227 229 234 240 244 246 251 256 258 255 254 255 255 257 256 261 263 266 271 276 280 283 284 286 286 285 285 286 286 285 285 284 284 282 279 278 275 274 271 267 265 263 260 259 257 256 254 253
219 225 232 235 237 244 249 254 260 261 261 260 257 255 255 255 256 259 264 271 277 281 283 284 287 287 287 288 288 286 286 286 286 286 285 281 277 275 272 269 267 265 263 261 259 255 254 253 251
222 227 233 235 238 245 251 256 265 268 266 265 261 259 260 259 258 261 266 269 275 278 281 283 285 287 287 287 287 288 289 287 286 285 283 280 277 274 270 266 266 262 259 257 255 253 251 250 251
227 235 243 247 252 249 253 256 266 272 270 274 270 262 257 257 263 268 269 270 273 275 278 282 283 285 286 287 287 288 288 287 285 283 282 279 277 273 271 266 265 261 258 255 253 248 247 249 250
235 240 243 242 247 254 256 264 273 278 274 276 273 265 258 251 256 263 267 270 273 276 279 282 283 283 284 285 287 287 288 287 285 284 281 278 276 274 269 266 263 260 256 253 251 248 249 250 251
237 238 239 243 249 256 261 266 272 278 276 276 275 264 261 258 261 266 267 270 274 279 281 283 283 283 283 284 286 286 286 286 285 282 280 279 276 272 267 262 260 256 253 252 251 251 251 251 253
236 238 238 241 247 257 264 269 272 277 278 274 273 269 262 265 268 269 270 270 273 278 281 281 282 283 284 285 286 286 285 286 286 281 277 276 275 273 270 264 259 257 255 253 254 255 254 253 253
236 233 235 242 248 258 264 267 273 276 277 279 278 273 270 271 272 275 272 272 277 279 281 281 282 283 283 283 284 285 285 286 285 282 278 276 275 272 268 264 261 259 256 255 256 256 256 255 255
236 238 242 249 253 259 263 268 278 282 284 284 283 280 271 273 274 277 273 275 280 282 283 283 284 283 283 283 283 283 285 285 284 282 279 276 275 273 271 267 263 260 259 258 259 258 256 255 255
242 242 247 255 261 264 268 274 280 283 288 291 286 283 278 272 272 276 274 275 280 283 285 286 287 287 286 284 282 283 283 284 283 281 279 277 274 271 270 269 267 266 264 262 260 258 256 256 256
246 249 250 256 264 265 271 279 283 285 289 290 289 286 282 277 278 282 281 281 283 287 288 289 290 288 286 284 282 282 282 281 281 280 278 277 274 270 269 268 266 265 264 263 261 258 258 258 258
250 253 255 261 266 274 280 288 291 292 289 288 287 290 291 285 284 289 288 287 288 288 288 289 290 289 287 287 284 281 281 280 280 280 278 276 274 272 271 270 267 265 263 262 261 260 260 260 260
256 260 259 261 269 277 287 292 294 299 299 298 296 293 295 293 292 294 293 290 289 289 290 290 290 290 289 288 285 282 280 279 280 281 279 276 274 273 274 274 271 268 266 264 263 263 262 262 260